Regional Weather Roundup
Issued by NWS Charleston, WV

Home | Current Version | Previous Version | Text Only | Print | Product List | Glossary Off
Versions: 1 2 3 4 5 6 7 8 9 10 11 12 13 14 15 16 17 18 19 20 21 22 23 24 25 26 27 28 29 30 31 32 33 34 35 36 37 38 39 40 41 42 43 44 45 46 47 48 49 50

000
ASUS41 KRLX 040610
RWRRLX
West Virginia Regional Weather Roundup
National Weather Service Charleston WV
200 AM EDT SAT JUL 04 2015

Note: "fair" indicates few or no clouds below 12,000 feet with no
significant weather and/or obstructions to visibility.

WVZ003-040700-
Northern Panhandle of West Virginia

CITY           SKY/WX    TMP DP  RH WIND       PRES   REMARKS
WHEELING       CLOUDY    66  64  93 NE5       29.87F FOG
$$

WVZ009-040700-
Northwest West Virginia

CITY           SKY/WX    TMP DP  RH WIND       PRES   REMARKS
PARKERSBURG    CLOUDY    66  64  93 W3        29.89F FOG
$$

WVZ006-040700-
Western West Virginia

CITY           SKY/WX    TMP DP  RH WIND       PRES   REMARKS
HUNTINGTON     FOG       68  68 100 CALM      29.88S VSB 3/4
$$

WVZ015-040700-
West Central West Virginia

CITY           SKY/WX    TMP DP  RH WIND       PRES   REMARKS
CHARLESTON     LGT RAIN  70  68  93 SW3       29.88S
$$

WVZ022-031-040700-
North Central West Virginia

CITY           SKY/WX    TMP DP  RH WIND       PRES   REMARKS
CLARKSBURG     CLOUDY    66  66 100 CALM      29.88S
MORGANTOWN     CLOUDY    68  63  84 SE7       29.88F
$$

WVZ025-035-042-045-040700-
Southern West Virginia

CITY           SKY/WX    TMP DP  RH WIND       PRES   REMARKS
BECKLEY        CLOUDY    66  63  90 SW5       29.96S
LOGAN          CLOUDY    68  68 100 SW7       29.89R
BLUEFIELD      LGT RAIN  67  63  87 W7        29.99F
LEWISBURG      CLOUDY    65  63  93 CALM      29.97S FOG
$$

WVZ047-040700-
Northern Mountains of West Virginia

CITY           SKY/WX    TMP DP  RH WIND       PRES   REMARKS
ELKINS         CLOUDY    62  60  93 CALM      29.93F FOG
$$

WVZ052-040700-
Eastern Panhandle of West Virginia

CITY           SKY/WX    TMP DP  RH WIND       PRES   REMARKS
MARTINSBURG    CLOUDY    68  65  90 CALM      29.92F FOG
PETERSBURG     CLOUDY    66  63  90 CALM      29.93F FOG
$$


USA.gov is the U.S. government's official web portal to all federal, state and local government web resources and services.